Theta_e
326 324 333 336 342 343 346 348 345 345 347 345 342 339 339 341 344 352 348 343 340 343 344 335 331 325 321 323 332 339 341 338 330 323 324 329 332 332 332 334 335 334 334 336 336 335 338 338 337
328 330 332 334 337 341 344 344 344 344 347 346 343 342 341 342 346 348 347 341 342 344 344 342 330 323 322 321 331 336 338 332 326 324 332 336 337 337 337 337 337 337 336 335 337 340 341 340 341
329 331 332 334 336 338 340 339 340 343 346 346 345 344 344 344 347 347 348 341 342 343 342 342 328 323 323 321 323 332 330 325 324 330 336 337 337 336 338 337 337 336 336 335 336 341 342 341 341
327 326 328 333 335 336 338 339 337 342 344 346 348 347 346 348 348 348 346 340 342 342 341 332 326 323 324 323 321 322 323 323 327 333 336 337 335 336 337 336 336 335 335 335 337 340 341 342 341
326 327 331 333 333 334 335 335 335 339 342 344 347 347 348 349 349 348 345 342 341 341 341 331 325 323 324 323 321 321 322 326 331 336 337 336 335 335 336 335 333 333 334 335 338 340 341 342 340
324 326 329 331 332 333 333 333 336 338 341 343 345 344 347 350 348 348 345 343 340 340 341 341 325 322 325 322 322 323 325 330 336 336 336 335 335 335 335 334 333 332 334 336 339 339 340 339 340
324 327 327 328 329 331 333 334 336 337 339 343 344 344 347 349 349 347 346 344 340 340 340 342 337 323 326 323 325 326 329 333 334 335 336 335 335 335 334 333 332 332 333 334 336 337 338 339 338
322 325 326 326 327 328 330 334 335 336 337 344 344 342 343 348 350 349 347 344 340 340 339 340 340 338 334 326 327 328 331 334 334 335 335 334 334 334 333 330 330 331 331 332 334 337 338 338 340
319 323 324 325 325 326 326 332 333 338 339 342 343 343 348 347 349 348 348 345 340 339 339 339 338 339 340 338 329 329 331 334 333 333 333 333 336 332 328 332 330 329 329 331 334 338 338 338 340
321 323 323 324 324 324 324 328 331 337 333 335 337 342 345 347 348 347 347 346 342 339 338 338 337 338 339 339 338 336 336 337 336 337 333 338 338 337 338 334 330 330 330 331 336 339 339 340 344
320 322 323 322 321 321 322 322 327 331 332 330 332 332 344 346 347 346 346 345 342 339 338 337 337 339 338 339 339 340 340 341 341 342 341 340 338 332 335 338 338 337 333 339 339 341 341 342 343
318 319 319 319 319 319 320 320 321 323 325 325 324 329 340 344 345 345 346 345 343 340 339 337 338 340 340 339 340 339 339 341 341 342 342 342 337 337 338 338 339 342 339 342 342 342 344 344 344
317 319 318 318 319 319 320 320 321 321 324 328 326 332 335 341 345 346 347 346 342 339 339 337 338 341 342 341 340 340 340 341 341 342 342 340 336 337 340 340 340 341 341 341 341 342 342 343 344
319 319 320 319 320 320 320 321 320 326 332 331 329 331 335 339 345 347 345 343 341 340 339 338 338 341 341 342 341 341 341 340 341 341 341 340 337 339 340 342 341 342 342 341 340 341 341 341 342
319 319 321 320 320 321 319 321 331 334 335 336 340 340 340 345 346 347 346 345 342 341 341 339 338 340 341 343 343 342 341 340 341 341 341 341 333 340 342 342 341 341 340 340 340 340 338 338 340
319 320 321 321 320 323 323 326 334 337 337 339 341 342 342 342 342 343 344 345 345 343 342 340 339 338 340 341 341 341 340 340 341 341 340 335 329 339 342 342 342 342 342 341 340 339 338 338 340
321 323 322 322 323 325 326 326 333 336 337 339 340 340 342 343 343 343 344 344 344 344 342 341 339 337 339 340 340 341 341 341 340 340 339 340 335 338 340 342 342 339 339 340 341 340 339 338 339
327 326 326 326 329 328 325 332 333 333 334 335 336 337 339 340 339 341 343 342 344 344 344 342 339 338 339 339 338 340 340 341 340 340 339 339 337 337 334 341 342 335 339 339 340 340 339 338 339
326 327 327 328 329 332 333 333 333 331 330 331 331 333 334 333 333 333 336 342 341 345 345 342 342 340 338 338 338 338 339 339 339 339 340 339 337 337 334 340 338 336 338 339 338 339 339 338 338
325 326 327 328 328 331 334 334 331 329 329 328 329 330 330 329 329 331 331 333 339 343 346 345 342 341 340 339 335 338 338 338 338 339 339 339 337 336 331 336 336 330 336 336 337 339 339 338 337
323 323 323 322 327 329 333 334 334 329 327 326 325 326 326 326 326 328 331 331 336 339 345 346 344 343 341 341 341 339 338 337 337 337 336 333 331 330 328 327 331 334 336 335 336 338 339 336 334
319 320 318 318 321 324 330 329 335 331 327 325 324 324 323 323 323 324 329 335 335 338 340 343 344 343 341 340 341 339 338 335 334 332 332 329 329 329 329 329 336 339 339 337 338 338 337 335 334
316 316 316 317 318 319 325 326 334 330 329 326 324 323 322 322 322 322 325 329 336 336 337 336 337 339 338 338 338 338 336 336 335 333 333 332 329 329 329 330 338 341 341 340 339 338 336 333 334
316 317 318 321 319 321 322 325 329 332 328 327 324 322 321 321 322 321 322 326 332 335 336 336 335 335 336 336 336 335 332 330 329 333 332 331 330 334 332 334 337 338 339 337 336 336 334 333 332
317 318 319 322 321 322 326 324 329 327 325 324 323 321 320 320 322 322 321 322 327 332 333 333 334 335 335 335 333 334 335 336 334 334 334 332 333 335 334 331 329 328 327 327 330 331 332 332 332
317 318 317 316 316 319 323 320 327 326 323 322 321 321 320 320 320 322 322 321 321 323 323 323 324 322 321 322 326 329 331 333 334 332 333 333 330 334 334 332 326 326 324 321 324 325 328 331 330
319 319 320 320 320 318 318 325 326 324 324 322 321 321 319 318 319 321 319 320 319 320 321 321 321 320 319 319 319 320 321 324 327 329 328 327 325 326 331 327 327 322 318 318 312 313 314 320 318
318 318 320 320 317 318 319 320 321 326 325 324 322 320 318 318 319 320 318 319 319 319 319 320 319 318 317 317 317 317 318 318 318 319 320 321 320 320 319 322 324 319 318 311 308 307 308 309 311
319 318 317 318 318 318 317 318 324 323 324 322 320 318 317 318 319 319 318 317 318 318 318 318 318 318 316 316 316 316 315 315 315 315 316 317 316 316 315 316 316 313 312 310 306 306 306 306 306
317 317 318 318 320 317 320 318 321 319 319 318 317 317 316 316 317 318 318 317 317 317 316 317 318 317 317 317 316 316 315 314 314 313 312 312 312 312 312 312 311 310 307 307 304 304 304 305 305
Wind_Speed
11 5 5 5 7 6 1 4 5 1 3 2 4 2 2 4 2 4 10 15 22 23 23 24 20 19 20 22 24 24 22 20 18 18 20 20 18 17 16 15 15 15 16 15 16 16 15 15 15
12 9 5 7 8 7 5 1 2 3 5 3 5 4 4 2 2 7 15 20 25 24 25 24 23 21 21 22 22 24 22 20 19 21 22 20 18 17 15 14 13 13 13 14 15 14 13 12 12
13 9 10 5 9 10 2 5 2 3 5 5 4 5 1 2 4 10 6 25 26 25 25 25 24 23 23 23 23 23 22 21 22 23 21 19 18 16 15 14 13 13 14 15 15 14 13 13 13
11 8 7 10 14 4 5 5 3 5 5 6 4 5 4 5 5 11 20 26 26 25 24 26 25 24 23 23 23 23 22 23 24 23 20 19 17 16 15 13 12 12 14 15 14 13 12 11 11
12 10 11 14 18 8 7 4 7 5 3 7 8 4 2 2 5 13 24 28 26 25 24 27 25 25 24 23 24 25 25 25 24 22 20 18 17 16 14 12 11 11 13 13 13 12 10 9 8
13 12 12 16 17 9 9 8 6 8 7 4 6 10 2 6 10 17 22 23 23 25 24 26 26 25 25 25 25 27 27 26 23 21 20 18 17 15 13 12 11 10 11 12 11 10 8 6 6
17 11 16 16 13 13 12 10 11 11 12 12 5 6 3 10 12 18 21 21 22 22 24 25 26 26 26 25 26 27 27 25 22 20 20 18 16 15 13 11 11 10 11 10 9 8 7 6 5
15 8 18 14 12 16 7 9 9 11 12 3 5 4 4 12 15 17 19 20 21 23 23 24 25 26 27 27 27 27 26 23 22 21 19 18 16 15 13 10 10 10 10 9 9 8 7 7 6
11 10 13 14 14 12 6 13 10 4 10 8 8 10 1 10 16 20 21 22 23 23 23 23 24 25 24 24 29 29 27 24 23 21 20 18 12 13 12 12 12 11 10 10 10 9 7 7 5
15 12 15 5 10 9 11 13 11 4 11 10 12 11 3 14 18 23 27 27 26 26 25 24 24 24 25 23 25 28 27 24 22 20 19 14 14 12 12 13 13 12 12 11 10 9 8 8 3
15 15 8 9 13 14 15 13 16 11 14 14 18 10 12 15 19 22 26 27 27 27 27 27 26 25 25 24 23 24 23 21 19 18 17 16 14 15 14 11 12 11 12 8 10 9 6 8 7
10 14 16 14 11 12 13 15 17 15 19 22 20 12 11 15 16 18 23 25 24 25 25 25 26 26 26 23 23 23 23 22 20 20 19 16 15 15 15 14 13 13 11 12 11 10 10 8 7
14 12 9 11 9 9 10 14 16 16 14 19 19 9 9 14 15 15 18 22 22 24 24 24 25 26 27 25 24 24 23 23 21 20 19 17 16 16 16 15 14 13 13 12 13 12 10 8 6
3 9 8 7 10 9 11 13 3 3 16 13 7 8 6 9 14 14 16 21 22 22 24 25 26 26 26 26 24 25 24 22 22 21 19 19 18 17 16 16 15 15 14 13 12 12 10 9 8
7 10 11 11 11 10 8 12 2 14 12 8 7 4 2 4 8 12 15 19 21 22 22 26 27 26 26 27 25 24 24 24 23 22 21 22 23 20 19 17 17 16 14 14 13 12 11 8 7
9 8 10 9 4 4 10 8 11 12 12 12 11 9 5 5 4 5 12 16 19 20 23 26 26 28 29 26 26 23 23 24 24 23 22 27 27 23 24 19 19 18 16 16 13 13 11 10 8
7 4 4 7 2 3 8 3 13 12 11 13 13 12 10 10 9 3 6 12 16 19 22 26 27 27 28 27 24 23 22 24 24 24 23 24 27 26 25 22 20 24 21 18 17 16 14 11 9
4 4 5 2 4 3 5 7 9 10 12 13 13 13 12 11 11 7 3 7 12 16 21 23 26 27 29 27 28 24 24 24 23 24 24 25 26 27 32 23 23 25 20 19 19 17 16 13 11
3 1 1 4 3 1 6 7 8 9 12 13 15 15 15 15 14 12 8 4 10 18 20 21 26 29 28 28 26 27 27 26 26 26 26 27 29 27 33 25 30 28 23 22 26 25 24 17 14
5 7 4 4 2 6 6 8 9 10 11 14 15 15 17 17 18 18 17 9 3 15 21 22 23 26 28 28 30 25 25 24 24 25 26 28 30 31 35 32 31 34 29 32 31 30 23 17 19
5 9 6 8 1 6 8 10 10 10 12 14 16 16 18 19 21 22 23 20 9 6 18 19 21 23 26 29 26 24 22 22 25 32 37 39 38 39 40 40 40 37 34 34 34 32 30 20 20
14 5 8 11 9 9 9 7 10 7 10 12 15 17 18 19 20 22 24 21 17 2 5 13 17 20 24 25 28 30 30 26 23 25 29 39 41 42 42 42 42 41 39 34 36 34 32 26 23
5 10 10 11 12 13 13 8 10 6 6 9 13 15 16 17 19 22 23 20 11 4 5 9 13 18 20 21 22 23 21 20 32 26 27 31 41 45 45 45 45 45 43 43 40 37 34 32 25
8 9 9 9 11 10 9 7 8 5 4 5 10 13 15 16 16 18 19 16 12 4 3 3 10 14 15 17 21 26 27 26 26 35 43 36 38 39 41 42 44 44 45 45 41 38 34 34 34
8 8 7 8 7 3 6 7 7 8 6 6 8 11 14 15 15 16 17 19 16 10 6 7 8 10 14 21 27 30 34 30 36 38 39 39 44 43 43 39 38 37 35 34 36 37 37 38 38
3 6 7 6 5 1 4 6 4 7 5 4 6 9 12 14 14 13 11 13 14 14 14 13 11 16 16 12 11 17 24 28 32 35 35 42 44 49 51 53 44 41 37 31 33 33 36 37 36
5 4 5 7 4 7 5 4 5 8 5 1 5 8 11 13 13 11 8 9 9 9 9 11 13 12 12 10 7 9 9 14 24 30 32 33 39 42 48 48 44 39 34 33 20 23 25 30 31
8 4 5 6 6 9 7 7 3 12 10 2 3 7 9 10 10 10 8 6 6 6 7 11 9 7 6 5 5 3 2 4 9 14 21 24 30 34 39 39 37 37 37 21 17 12 17 21 25
6 9 6 6 5 7 8 4 5 3 4 3 3 4 5 7 8 7 7 7 8 9 9 8 4 3 2 1 2 1 2 2 4 8 12 17 24 24 24 24 26 29 26 25 18 14 13 13 15
6 7 7 7 7 7 8 5 5 4 4 4 4 3 3 5 6 6 5 5 5 8 6 5 3 3 4 6 6 6 5 6 8 10 12 12 14 14 15 18 19 20 23 28 24 19 15 11 11
Wind_Direction
209 198 188 253 251 239 167 142 322 244 185 63 137 225 297 18 318 39 148 159 159 162 165 167 169 168 168 173 176 174 170 167 163 154 143 136 132 133 136 134 131 129 127 122 122 120 113 109 100
189 179 215 266 259 232 150 330 232 49 63 122 168 210 204 139 83 126 144 162 159 162 164 167 169 169 170 173 175 176 173 171 164 153 144 138 135 135 136 138 135 135 136 133 127 122 118 113 107
179 191 249 242 251 254 198 133 39 144 148 148 188 239 257 152 164 161 180 162 161 162 165 171 168 168 169 172 175 177 175 167 160 153 147 144 142 141 139 136 134 136 138 140 135 127 119 112 104
177 199 236 248 242 188 258 165 18 166 166 197 220 207 206 194 172 174 163 162 165 163 166 172 168 169 169 170 172 175 171 165 159 156 153 149 147 147 143 139 135 135 135 142 139 131 122 112 102
188 226 238 233 245 229 231 210 270 248 172 192 210 237 218 169 158 166 163 163 166 164 167 173 171 169 172 172 170 169 167 164 161 158 157 155 154 153 151 146 141 141 140 143 143 138 127 116 108
198 235 234 233 234 214 237 250 224 227 220 212 224 262 199 182 145 154 160 165 168 167 168 172 174 172 174 171 170 167 166 164 164 164 164 162 161 159 158 155 150 149 147 149 148 146 137 127 120
236 211 238 247 252 230 225 218 231 232 228 207 268 252 79 172 157 158 162 167 171 172 169 172 175 176 176 175 174 170 169 169 168 171 169 169 169 167 168 169 162 163 159 160 159 159 148 144 143
233 257 247 240 246 243 197 230 250 247 248 157 214 254 265 183 167 164 168 174 176 176 177 175 175 177 179 179 180 176 174 175 175 177 176 176 178 178 178 179 179 178 173 172 169 165 157 152 149
217 240 242 233 234 255 238 241 217 264 240 221 232 264 218 162 169 168 173 181 183 183 182 181 180 180 179 183 183 182 180 182 181 182 182 181 180 183 179 182 188 188 182 178 172 167 163 159 154
212 228 248 270 279 266 260 247 244 245 227 249 251 245 255 175 180 180 181 186 186 185 186 184 184 184 181 186 191 184 186 187 186 186 189 181 188 183 180 196 194 191 185 180 178 168 152 130 144
215 249 257 252 258 268 273 265 261 248 258 257 267 272 223 195 191 191 190 190 189 188 187 185 184 187 185 187 190 187 188 192 193 192 192 184 196 199 188 196 192 191 187 181 180 170 153 173 164
244 237 260 260 264 247 255 260 261 255 266 270 277 298 227 210 207 200 197 193 191 191 193 190 189 187 186 188 189 189 192 195 199 200 196 196 188 199 195 193 194 186 189 194 182 191 185 175 165
233 249 231 239 246 239 259 257 263 284 314 307 271 271 258 222 216 207 201 198 195 196 196 196 195 193 190 187 190 190 197 198 203 206 204 198 197 201 202 200 197 196 201 193 191 192 183 186 182
190 254 241 247 235 235 242 256 307 47 331 325 303 273 261 237 211 200 197 196 198 198 199 201 202 201 195 194 194 193 197 202 202 209 208 200 198 205 203 209 200 201 200 200 199 198 187 188 195
246 251 240 238 248 226 238 249 89 335 340 18 18 38 80 142 194 207 201 208 204 204 202 204 202 207 200 203 198 195 201 200 205 209 208 208 205 208 202 209 207 207 204 203 197 196 196 193 200
236 240 235 94 206 151 218 132 39 12 25 48 49 57 84 79 134 199 203 204 211 211 210 205 206 205 208 207 208 204 206 206 208 212 213 216 214 208 210 210 211 210 207 204 203 205 203 203 207
190 209 229 135 76 155 223 240 35 29 42 52 55 57 64 81 62 74 215 222 220 220 215 210 206 207 208 209 214 213 214 213 216 214 214 222 216 214 212 213 216 218 220 216 210 206 205 212 206
83 170 140 164 73 241 186 72 52 46 56 57 57 54 56 55 38 26 6 235 227 220 214 216 210 207 210 210 212 217 217 222 220 221 220 219 219 218 222 214 217 224 218 217 211 208 212 212 205
12 322 35 103 86 154 102 105 82 72 66 61 58 54 53 40 27 19 4 340 240 227 218 215 214 220 210 212 213 214 216 220 224 223 223 222 222 220 225 215 223 224 215 214 221 222 227 217 196
304 300 112 144 77 266 174 123 104 83 75 62 58 51 41 33 26 19 9 337 233 224 222 216 214 219 226 221 222 218 221 223 227 226 229 230 228 223 227 221 226 229 224 224 225 225 224 212 205
270 296 315 315 136 237 212 173 157 105 88 72 58 52 42 32 20 14 9 6 277 232 225 222 220 218 220 218 220 219 221 226 226 224 225 229 232 232 235 233 233 233 226 227 228 229 229 217 214
295 73 296 282 251 264 199 264 153 132 97 66 55 42 33 27 22 17 11 21 43 333 227 234 229 223 226 225 223 222 228 229 240 245 248 243 241 240 239 238 235 235 230 226 229 229 231 222 215
317 319 287 277 260 263 204 251 122 166 113 55 48 41 35 25 18 16 16 16 27 36 295 229 240 242 244 242 248 243 238 252 257 248 247 244 244 242 239 236 235 235 232 232 232 230 230 228 215
302 273 252 249 239 229 213 250 152 154 101 68 42 32 28 27 26 18 20 20 34 13 348 293 250 241 240 243 242 251 255 257 261 248 251 251 249 242 235 234 235 234 233 231 229 230 231 226 219
288 253 235 210 199 248 115 237 57 127 102 49 26 17 19 19 22 24 33 36 36 30 5 292 267 262 262 263 261 257 255 253 244 249 253 247 251 244 238 229 230 227 226 228 227 227 224 220 221
309 309 314 302 269 236 161 244 123 127 115 61 21 6 8 12 17 26 45 52 60 61 64 59 50 35 28 6 322 284 269 259 254 237 238 248 254 246 243 234 226 223 222 222 222 222 221 222 224
120 251 10 286 231 261 210 122 175 165 172 186 1 354 5 5 9 15 33 48 67 65 52 30 17 9 4 351 350 350 314 282 268 261 257 252 245 245 250 235 235 225 219 212 219 215 211 217 212
291 71 217 195 260 258 177 245 292 181 204 199 321 348 356 1 4 5 14 2 10 15 11 2 4 10 15 18 31 48 43 284 259 251 243 248 242 234 233 233 234 233 227 206 198 194 188 195 189
178 215 233 303 292 284 273 194 72 148 179 253 299 332 341 343 351 350 350 339 328 331 329 335 332 341 318 340 332 329 99 179 228 236 231 239 242 237 229 225 219 215 210 192 175 192 160 181 164
265 281 254 259 187 238 302 299 122 142 196 223 262 274 308 316 319 328 332 330 332 332 335 327 320 281 263 266 258 236 211 180 170 167 168 180 195 197 206 200 197 193 180 179 171 183 180 171 166